Location: Gälforsberget
(66.6500°N, 22.4167°E)
Time: 17:57:18
(UTC+00:00)

CSL-04 DEB - Pass Details

Date: 11 April 2026
Orbit: 461 x 503 km, 98.7° (Epoch: 16 May)

Event Time Altitude Azimuth Distance (km) Brightness Sun altitude
Exits shadow 20:10:25 16° 152° (SSE) 1,289 5.6 -10.6°
Maximum altitude 20:13:07 83° 65° (ENE) 475 4.0 -10.7°
Drops below altitude 10° 20:16:36 10° 338° (NNW) 1,631 8.2 -10.9°
Sets 20:18:39 0° 338° (NNW) 2,515 9.6 -11.0°
